Вернуться в каталог

BLUE RING PATHFINDER

АктивенНаукаHEO
NORAD 62720·PAYLOAD·🇺🇸 United States

Запущен Jan 16, 2025 с Cape Canaveral Space Force Station

Loading…

Ближайшие Пролёты (ближайшие 24 часа)

TLE

СвежийSource: Space-Track

Эпоха: Sep 14, 2026, 14:43 UTC

1 62720U 25011A   26257.61359196 -.00000030  00000-0  00000-0 0  9992
2 62720  29.8434 116.5047 4883356 352.8385   2.2296  3.84308815 23314

Отслеживайте BLUE RING PATHFINDER в реальном времени с AllMySat

Download on the App Store